Radioactive Concentration measured by Seawater Radiation Monitor near Fukushima Daiichi Nuclear Power Station
Date,Time,Cs137(Bq/L),Cs134(Bq/L),Total β(Bq/L)
2017/04/19,00:00,0.60,0.042,15
2017/04/19,00:10,0.59,0.048,11
2017/04/19,00:20,0.61,0.043,12
2017/04/19,00:30,0.63,0.040,10
2017/04/19,00:40,0.73,ND,10
2017/04/19,00:50,0.58,0.057,ND
2017/04/19,01:00,0.58,0.050,8.8
2017/04/19,01:10,0.69,ND,11
2017/04/19,01:20,0.55,0.045,12
2017/04/19,01:30,0.54,0.050,12
2017/04/19,01:40,0.52,0.053,12
2017/04/19,01:50,0.51,0.059,13
2017/04/19,02:00,0.52,0.061,11
2017/04/19,02:10,0.52,0.062,9.7
2017/04/19,02:20,0.53,0.061,10
2017/04/19,02:30,0.53,0.061,10
2017/04/19,02:40,0.53,0.054,10
2017/04/19,02:50,0.54,0.049,9.5
2017/04/19,03:00,0.56,0.044,9.6
2017/04/19,03:10,0.55,0.051,11
2017/04/19,03:20,0.56,0.053,9.9
2017/04/19,03:30,0.57,0.047,9.9
2017/04/19,03:40,0.59,0.044,10
2017/04/19,03:50,0.59,0.038,13
2017/04/19,04:00,0.57,0.044,14
2017/04/19,04:10,0.58,0.043,11
2017/04/19,04:20,0.58,0.043,12
2017/04/19,04:30,0.57,0.042,13
2017/04/19,04:40,0.54,0.052,11
2017/04/19,04:50,0.55,0.051,9.7
2017/04/19,05:00,0.54,0.053,9.5
2017/04/19,05:10,0.55,0.052,12
2017/04/19,05:20,0.57,0.051,16
2017/04/19,05:30,0.56,0.057,16
2017/04/19,05:40,0.58,0.051,17
2017/04/19,05:50,0.56,0.059,16
2017/04/19,06:00,0.58,0.061,17
2017/04/19,06:10,0.56,0.070,15
2017/04/19,06:20,0.54,0.068,8.8
2017/04/19,06:30,0.55,0.069,ND
2017/04/19,06:40,0.57,0.068,ND
2017/04/19,06:50,0.59,0.066,ND
2017/04/19,07:00,0.58,0.065,ND
2017/04/19,07:10,0.59,0.062,ND
2017/04/19,07:20,0.60,0.059,ND
2017/04/19,07:30,0.62,0.058,ND
2017/04/19,07:40,0.61,0.059,10
2017/04/19,07:50,0.61,0.056,12
2017/04/19,08:00,0.62,0.051,9.0
2017/04/19,08:10,0.63,0.057,9.9
2017/04/19,08:20,0.62,0.062,ND
2017/04/19,08:30,0.61,0.069,ND
2017/04/19,08:40,0.61,0.071,ND
2017/04/19,08:50,0.60,0.073,ND
2017/04/19,09:00,0.59,0.073,ND
2017/04/19,09:10,0.60,0.069,ND
2017/04/19,09:20,0.60,0.080,10
2017/04/19,09:30,0.60,0.076,15
2017/04/19,09:40,0.59,0.082,18
2017/04/19,09:50,0.63,0.058,16
2017/04/19,10:00,0.62,0.068,16
2017/04/19,10:10,0.61,0.062,17
2017/04/19,10:20,0.60,0.063,15
2017/04/19,10:30,0.60,0.066,11
2017/04/19,10:40,0.59,0.060,12
2017/04/19,10:50,0.58,0.066,11
2017/04/19,11:00,0.59,0.060,12
2017/04/19,11:10,0.60,0.065,9.7
2017/04/19,11:20,0.60,0.073,10
2017/04/19,11:30,0.60,0.071,12
2017/04/19,11:40,0.63,0.066,9.7
2017/04/19,11:50,0.67,0.061,13
2017/04/19,12:00,0.68,0.061,14
2017/04/19,12:10,0.67,0.061,15
2017/04/19,12:20,0.66,0.060,15
2017/04/19,12:30,0.65,0.071,16
2017/04/19,12:40,0.66,0.072,16
2017/04/19,12:50,0.75,0.033,15
2017/04/19,13:00,0.75,0.040,10
2017/04/19,13:10,0.78,0.049,ND
2017/04/19,13:20,0.80,0.052,ND
2017/04/19,13:30,0.85,0.049,ND
2017/04/19,13:40,0.86,0.056,11
2017/04/19,13:50,0.79,0.093,13
2017/04/19,14:00,0.81,0.095,17
2017/04/19,14:10,0.82,0.087,19
2017/04/19,14:20,0.83,0.092,18
2017/04/19,14:30,0.83,0.093,20
2017/04/19,14:40,0.83,0.099,21
2017/04/19,14:50,0.81,0.099,18
2017/04/19,15:00,0.82,0.089,21
2017/04/19,15:10,0.81,0.087,22
2017/04/19,15:20,0.84,0.087,24
2017/04/19,15:30,0.85,0.085,20
2017/04/19,15:40,0.87,0.073,16
2017/04/19,15:50,0.89,0.071,16
2017/04/19,16:00,0.89,0.075,15
2017/04/19,16:10,0.90,0.089,15
2017/04/19,16:20,0.92,0.073,14
2017/04/19,16:30,0.88,0.094,14
2017/04/19,16:40,0.90,0.089,16
2017/04/19,16:50,0.91,0.094,15
2017/04/19,17:00,0.91,0.10,15
2017/04/19,17:10,0.93,0.093,12
2017/04/19,17:20,0.94,0.094,12
2017/04/19,17:30,0.95,0.099,10
2017/04/19,17:40,1.1,0.065,ND
2017/04/19,17:50,1.1,0.059,10
2017/04/19,18:00,1.0,0.090,ND
2017/04/19,18:10,1.2,0.046,10
2017/04/19,18:20,1.1,0.077,9.7
2017/04/19,18:30,1.1,0.067,10
2017/04/19,18:40,1.0,0.079,13
2017/04/19,18:50,1.0,0.075,12
2017/04/19,19:00,1.0,0.074,10
2017/04/19,19:10,0.96,0.077,12
2017/04/19,19:20,0.92,0.080,14
2017/04/19,19:30,1.0,0.048,14
2017/04/19,19:40,0.89,0.076,12
2017/04/19,19:50,0.97,0.048,13
2017/04/19,20:00,0.98,0.050,13
2017/04/19,20:10,0.87,0.082,11
2017/04/19,20:20,0.86,0.080,10
2017/04/19,20:30,0.88,0.079,ND
2017/04/19,20:40,0.88,0.073,ND
2017/04/19,20:50,0.87,0.075,ND
2017/04/19,21:00,0.86,0.074,ND
2017/04/19,21:10,0.85,0.084,ND
2017/04/19,21:20,0.87,0.086,ND
2017/04/19,21:30,0.86,0.086,ND
2017/04/19,21:40,0.88,0.090,ND
2017/04/19,21:50,0.86,0.095,ND
2017/04/19,22:00,0.92,0.068,ND
2017/04/19,22:10,0.95,0.065,ND
2017/04/19,22:20,0.92,0.069,ND
2017/04/19,22:30,0.94,0.071,11
2017/04/19,22:40,0.90,0.090,8.8
2017/04/19,22:50,0.92,0.10,ND
2017/04/19,23:00,0.92,0.088,ND
2017/04/19,23:10,0.91,0.084,ND
2017/04/19,23:20,0.93,0.081,10
2017/04/19,23:30,0.90,0.095,9.3
2017/04/19,23:40,0.89,0.098,10
2017/04/19,23:50,0.88,0.088,10
